This is the latest recevied weather packets stored in our database for station/object N4QEP-13. If no packets are shown the sender has not sent any weather packets the latest 10 day(s).
| Time | Temp. | Humidity | Pressure | Rain* | Wind** | Luminosity | Snow |
|---|---|---|---|---|---|---|---|
| 1777755646 | 22.22° C | 41% | 1014 hPa | 0 mm | - | - | - |
| 1777754733 | 22.22° C | 42% | 1014 hPa | 0 mm | - | - | - |
| 1777753834 | 22.22° C | 42% | 1013.9 hPa | 0 mm | - | - | - |
| 1777752930 | 22.22° C | 42% | 1014 hPa | 0 mm | - | - | - |
| 1777752027 | 21.67° C | 44% | 1014.3 hPa | 0 mm | - | - | - |
| 1777751128 | 21.11° C | 45% | 1014.4 hPa | 0 mm | - | - | - |
| 1777751126 | 21.11° C | 45% | 1014.4 hPa | 0 mm | - | - | - |
| 1777750228 | 21.67° C | 45% | 1014.5 hPa | 0 mm | - | - | - |
| 1777749324 | 21.11° C | 46% | 1014.7 hPa | 0 mm | - | - | - |
| 1777748429 | 21.11° C | 47% | 1015 hPa | 0 mm | - | - | - |
| 1777747521 | 21.11° C | 48% | 1015 hPa | 0 mm | - | - | - |
| 1777746618 | 21.11° C | 47% | 1014.7 hPa | 0 mm | - | - | - |
| 1777745715 | 21.11° C | 49% | 1014.7 hPa | 0 mm | - | - | - |
| 1777744814 | 20.56° C | 51% | 1014.8 hPa | 0 mm | - | - | - |
| 1777743916 | 20.56° C | 58% | 1014.9 hPa | 0 mm | - | - | - |
| 1777743017 | 20° C | 61% | 1014.9 hPa | 0 mm | - | - | - |
| 1777742104 | 19.44° C | 63% | 1015 hPa | 0 mm | - | - | - |
| 1777741202 | 18.33° C | 63% | 1014.9 hPa | 0 mm | - | - | - |
| 1777740360 | 17.78° C | 65% | 1015.1 hPa | 0 mm | - | - | - |
| 1777739472 | 17.78° C | 67% | 1015 hPa | 0 mm | - | - | - |
| 1777738554 | 17.22° C | 71% | 1015.2 hPa | 0 mm | - | - | - |
| 1777737660 | 15.56° C | 79% | 1015.5 hPa | 0 mm | - | - | - |
| 1777736757 | 13.89° C | 81% | 1015.3 hPa | 0 mm | - | - | - |
| 1777735830 | 13.33° C | 81% | 1015.2 hPa | 0 mm | - | - | - |
| 1777734910 | 13.33° C | 81% | 1015.1 hPa | 0 mm | - | - | - |
* Rain latest hour (hover to see other rain measurements)
** Current wind speed in m/s (hover to see current wind gust speed)